www.pogodaiklimat.ru

Погода и климат >> Архив погоды >> Оман >> Marmul


ПОГОДА в Marmul

  • Прогноз погоды в Marmul
  • Монитор погоды в Marmul
  • Климат города

АРХИВ ПОГОДЫ в Marmul

Время (UTC), дата Ветер
(напр.,м/с)
 
Видим.   Явления Облачность Т
(С)
Тd
(С)
f
(%)
Тe
(С)
Тes
(С)
Комфортность P
(гПа)
Po
(гПа)
Тmin
(С)
Tmax
(С)
R
(мм)
R24
(мм)
S
(см)
12 15.11 СВ 3 н/о н/о +30.4 +6.3 22 +29 +29 жарко 1010.0 980.1
15 15.11 ЮВ 6 н/о н/о +26.4 +6.9 29 +26 +26 жарко 1011.9 981.5
18 15.11 ЮВ 5 н/о н/о +22.9 +20.3 85 +30 +30 очень
душно
1013.2 982.6 +31.5
21 15.11 Ю 3 н/о н/о +21.6 +20.3 92 +27 +27 душно 1013.2 982.4
00 16.11 ЮВ 2 н/о н/о +19.8 +19.6 99 +24 +24 комфорт 1013.5 982.5
03 16.11 ЮЗ 3 н/о н/о +17.6 +16.4 93 +18 +18 1015.4 984.1
06 16.11 ЮЗ 3 н/о н/о +24.7 +16.3 60 +28 +28 душно 1016.0 985.4 +17.2
09 16.11 ЮЗ 2 н/о н/о +29.7 +13.2 36 +31 +31 жарко 1012.5 982.5
12 16.11 н/о н/о +30.6 +11.3 30 1010.5 980.6
15 16.11 ЮВ 6 н/о н/о +26.4 +12.8 43 +28 +28 жарко 1012.5 982.1
18 16.11 ЮВ 4 н/о н/о +23.3 +18.3 73 +29 +29 душно 1013.9 983.3 +31.0
21 16.11 ЮВ 3 н/о н/о +23.5 +20.0 81 +29 +29 душно 1013.8 983.2
00 17.11 ЮВ 2 н/о н/о +23.5 +20.0 81 +29 +29 душно 1013.8 983.2
06 17.11 ЮВ 3 н/о н/о +26.7 +18.1 59 +31 +31 душно 1016.0 985.7 +22.9
09 17.11 СВ 3 н/о н/о +29.4 +11.5 33 +30 +30 жарко 1012.9 982.8
12 17.11 ЮВ 4 н/о н/о +29.3 +14.7 41 +32 +32 душно 1010.9 980.9
15 17.11 ЮВ 6 н/о н/о +25.7 +17.2 59 +30 +30 душно 1013.0 982.6
18 17.11 ЮВ 4 н/о н/о +23.6 +18.0 71 +28 +28 душно 1014.9 984.3 +30.7
21 17.11 ЮВ 4 н/о н/о +22.3 +17.9 76 +27 +27 душно 1014.9 984.1
00 18.11 В 2 н/о н/о +21.2 +17.4 79 +25 +25 комфорт 1014.8 983.9
03 18.11 ЮВ 1 н/о н/о +19.4 +16.3 82 +22 +22 комфорт 1016.3 985.2
06 18.11 В 5 н/о н/о +25.8 +17.1 59 +30 +30 душно 1017.1 986.7 +19.2
09 18.11 СВ 6 н/о н/о +29.5 +13.0 36 +31 +31 жарко 1014.3 984.3
12 18.11 ЮВ 6 н/о н/о +28.0 +16.3 49 +31 +31 душно 1013.0 982.8
15 18.11 ЮВ 7 н/о н/о +25.3 +18.1 64 +30 +30 душно 1015.3 984.8
18 18.11 ЮВ 3 н/о н/о +23.3 +14.3 57 +27 +27 душно 1017.1 986.3 +30.2
21 18.11 ЮВ 3 н/о н/о +20.9 +15.3 70 +24 +24 комфорт 1017.0 986.0
00 19.11 ЮВ 2 н/о н/о +19.0 +14.9 77 +21 +21 комфорт 1016.5 985.4
03 19.11 СВ 1 н/о н/о +16.7 +13.3 80 +18 +18 1018.3 986.8
06 19.11 В 5 н/о н/о +25.1 +15.5 55 +28 +28 жарко 1018.7 988.1 +16.7
09 19.11 В 6 н/о н/о +28.6 +9.2 30 +29 +29 жарко 1015.9 985.6
12 19.11 ЮВ 5 н/о н/о +27.9 +13.8 42 +30 +30 жарко 1014.1 983.8
15 19.11 ЮВ 6 н/о н/о +24.8 +15.2 55 +28 +28 жарко 1016.1 985.5
18 19.11 ЮВ 4 н/о н/о +23.0 +13.8 56 +26 +26 жарко 1017.9 987.1 +29.7
21 19.11 ЮВ 3 н/о н/о +20.6 +12.4 59 +23 +23 комфорт 1017.1 986.0
03 20.11 ЮВ 1 н/о н/о +17.1 +11.2 68 +18 +18 1018.8 987.3
06 20.11 В 5 н/о н/о +25.1 +14.0 50 +27 +27 жарко 1018.9 988.2 +16.4
09 20.11 В 8 н/о н/о +28.2 +9.2 30 +28 +28 жарко 1015.9 985.6
12 20.11 В 7 н/о н/о +28.4 +8.6 29 +28 +28 жарко 1013.7 983.5
15 20.11 Ю 6 н/о н/о +23.9 +13.7 53 +26 +26 жарко 1015.2 984.6
18 20.11 ЮВ 2 н/о н/о +21.2 +15.2 69 +24 +24 комфорт 1016.8 985.8 +29.0
21 20.11 ЮВ 2 н/о н/о +18.9 +13.6 71 +20 +20 1016.0 984.8
00 21.11 ЮВ 1 н/о н/о +16.8 +12.5 76 +18 +18 1015.4 984.0
03 21.11 штиль 0 н/о н/о +14.8 +11.5 81 +15 +15 1017.0 985.3
06 21.11 ЮВ 5 н/о н/о +24.9 +13.5 49 +27 +27 жарко 1016.7 986.1 +14.7
09 21.11 В 6 н/о н/о +27.9 +11.3 36 +29 +29 жарко 1013.5 983.2
12 21.11 ЮВ 5 н/о н/о +27.4 +13.8 43 +29 +29 жарко 1011.3 981.1
15 21.11 ЮВ 5 н/о н/о +23.6 +14.3 56 +26 +26 жарко 1013.0 982.3
18 21.11 ЮВ 3 н/о н/о +20.6 +15.7 73 +24 +24 комфорт 1014.2 983.3 +28.7
21 21.11 ЮВ 4 н/о н/о +19.3 +13.8 70 +21 +21 комфорт 1013.0 981.9
00 22.11 В 1 н/о н/о +17.3 +13.7 79 +18 +18 1013.2 981.9
03 22.11 штиль 0 н/о н/о +16.6 +13.0 79 +17 +17 1014.4 983.0

 

Местоположение метеостанции Marmul (Оман): широта 18.13 долгота 55.17 высота над уровнем моря 269 м.

В архиве по умолчанию представлена погода в Marmul за последнюю неделю. Архивные данные за месяц целиком и за предыдущие месяцы, начиная с января 2011 года, Вы можете получить, выбрав интересующий диапазон дат из раскрывающегося списка и нажав кнопку "Ввод!".

Внимание! Время в таблицах - всемирное. Для получения местного времени необходимо прибавить поправку, которая в Marmul равна 4 ч.

Смотрите также архив погоды в соседних городах и на ближайших метеорологических станциях:

Погода в Thumrait (Оман) (132 км)
Погода в Qaroon Hairitti (Оман) (151 км)
Погода в Salalah (Оман) (168 км)
Погода в Mina Salalah (Оман) (191 км)
Погода в Yaaloni (Оман) (286 км)
Погода в Duqm (Оман) (307 км)
Погода в Umzamaim (Оман) (361 км)
Погода в Qarn Alam (Оман) (411 км)
Погода в Joba (Оман) (442 км)
Погода в Masirah (Оман) (483 км)

Пояснения к столбцам:

Ветер - указаны скорость ветра в м/с - средняя за 10 мин, порывы в срок и между сроками (в фигурных скобках) и направление, откуда дует ветер: С - северный, СВ - северо-восточный, В - восточный, ЮВ - юго-восточный, Ю - южный, ЮЗ - юго-западный, З - западный, СЗ - северо-западный.
Видимость - горизонтальная дальность видимости в метрах или километрах. При видимости от 1 до 10 км при отсутствии осадков обычно наблюдается дымка, при ухудшении видимости до 1 км и менее - туман. В сухую погоду видимость может ухудшаться дымом, пылью или мглою.
Явления - указаны атмосферные явления, наблюдавшиеся в срок или в последний час перед сроком; фигурными скобками обозначены явления, наблюдавшиеся между сроками (за 1-3 часа до срока); квадратными скобками обозначены град или гололедные отложения с указанием их диаметра в мм.
Облачность - указаны через наклонную черту общая и нижняя облачность в баллах и высота нижней границы облаков в метрах; квадратными скобками обозначены формы облаков: Ci - перистые, Cs - перисто-слоистые, Cc - перисто-кучевые, Ac - высококучевые, As - высокослоистые, Sc - слоисто-кучевые, Ns - слоисто-дождевые, Cu - кучевые, Cb - кучево-дождевые. Подробнее классификацию облаков см. в Атласе облаков (PDF).
T - Температура воздуха - температура, измеренная на высоте 2 м над землей.
Td - Температура точки росы - температура, при понижении до которой содержащийся в воздухе водяной пар достигнет насыщения.
f - Относительная влажность воздуха - влажноcть воздуха, измеренная на высоте 2 м над землей.
Te - Эффективная температура - температура, которую ощущает одетый по сезону человек в тени. Характеристика душности погоды. При расчете учитывается влияние влажности воздуха и скорости ветра на теплоощущения человека.
Tes - Эффективная температура на солнце - температура, которую ощущает человек, с поправкой на солнечный нагрев. Характеристика знойности погоды. Зависит от высоты солнца над горизонтом, облачности и скорости ветра. Ночью, в пасмурную погоду, а также при ветре 12 м/с и более поправка равна нулю.
P - Атмосферное давление - приведенное к уровню моря атмосферное давление.
Po - Атмосферное давление - измеренное на уровне метеостанции атмосферное давление.
Tmin - Минимальная температура - минимум температуры воздуха на высоте 2 м над землей.
Tmax - Максимальная температура - максимум температуры воздуха на высоте 2 м над землей.
R - Количество осадков - Количество выпавших осадков за период времени, мм. При наведении курсора мыши на число - период времени, за который выпало указанное количество осадков.
R24 - Количество осадков - Количество выпавших осадков за 24 часа, мм.
S - Снежный покров - Высота снежного покрова, см. При наведении курсора мыши на число - состояние снежного покрова и степень покрытия местности в баллах.